Time,TemperatureF,DewpointF,PressureIn,WindDirection,WindDirectionDegrees,WindSpeedMPH,WindSpeedGustMPH,Humidity,HourlyPrecipIn,Conditions,Clouds,dailyrainin,SoftwareType,DateUTC
2014-12-25 00:02:00,35.4,33.6,29.87,West,270,1.7,-999.0,93,-99.99,,,0.00,Acu-Link.com,2014-12-25 08:02:00,
2014-12-25 00:18:00,35.6,33.8,29.87,WSW,247,0.0,-999.0,93,-99.99,,,0.00,Acu-Link.com,2014-12-25 08:18:00,
2014-12-25 00:33:00,35.4,33.6,29.87,West,270,1.1,-999.0,93,-99.99,,,0.00,Acu-Link.com,2014-12-25 08:33:00,
2014-12-25 00:48:00,35.2,33.4,29.88,West,270,1.7,-999.0,93,-99.99,,,0.00,Acu-Link.com,2014-12-25 08:48:00,
2014-12-25 01:03:00,35.4,33.3,29.87,SSW,202,1.7,-999.0,92,-99.99,,,0.00,Acu-Link.com,2014-12-25 09:03:00,
2014-12-25 01:18:00,34.7,32.9,29.87,SW,225,1.7,-999.0,93,-99.99,,,0.00,Acu-Link.com,2014-12-25 09:18:00,
2014-12-25 01:34:00,34.7,32.9,29.87,SSW,202,1.7,-999.0,93,-99.99,,,0.00,Acu-Link.com,2014-12-25 09:34:00,
2014-12-25 01:49:00,34.2,32.7,29.87,SSW,202,0.0,-999.0,94,-99.99,,,0.00,Acu-Link.com,2014-12-25 09:49:00,
2014-12-25 02:04:00,33.8,32.3,29.87,SW,225,1.7,-999.0,94,-99.99,,,0.00,Acu-Link.com,2014-12-25 10:04:00,
2014-12-25 02:20:00,34.2,32.1,29.86,West,270,1.7,-999.0,92,-99.99,,,0.00,Acu-Link.com,2014-12-25 10:20:00,
2014-12-25 02:35:00,34.9,31.7,29.87,West,270,2.2,-999.0,88,-99.99,,,0.00,Acu-Link.com,2014-12-25 10:35:00,
2014-12-25 02:50:00,35.6,32.1,29.88,West,270,2.2,-999.0,87,-99.99,,,0.00,Acu-Link.com,2014-12-25 10:50:00,
2014-12-25 03:06:00,35.4,32.2,29.88,WSW,247,2.2,-999.0,88,-99.99,,,0.00,Acu-Link.com,2014-12-25 11:06:00,
2014-12-25 03:21:00,35.2,32.0,29.88,West,270,2.7,-999.0,88,-99.99,,,0.00,Acu-Link.com,2014-12-25 11:21:00,
2014-12-25 03:36:00,35.4,32.2,29.87,WSW,247,2.7,-999.0,88,-99.99,,,0.00,Acu-Link.com,2014-12-25 11:36:00,
2014-12-25 03:51:00,35.6,32.1,29.88,West,270,1.7,-999.0,87,-99.99,,,0.00,Acu-Link.com,2014-12-25 11:51:00,
2014-12-25 04:06:00,35.4,31.9,29.87,WSW,247,3.2,-999.0,87,-99.99,,,0.00,Acu-Link.com,2014-12-25 12:06:00,
2014-12-25 04:21:00,35.1,31.6,29.88,West,270,0.0,-999.0,87,-99.99,,,0.00,Acu-Link.com,2014-12-25 12:21:00,
2014-12-25 04:36:00,35.2,31.2,29.87,WSW,247,1.1,-999.0,85,-99.99,,,0.00,Acu-Link.com,2014-12-25 12:36:00,
2014-12-25 04:52:00,36.3,28.5,29.88,NNW,337,2.2,-999.0,73,-99.99,,,0.00,Acu-Link.com,2014-12-25 12:52:00,
2014-12-25 05:07:00,36.3,31.0,29.88,WNW,292,1.7,-999.0,81,-99.99,,,0.00,Acu-Link.com,2014-12-25 13:07:00,
2014-12-25 05:22:00,35.4,31.1,29.88,West,270,1.7,-999.0,84,-99.99,,,0.00,Acu-Link.com,2014-12-25 13:22:00,
2014-12-25 05:37:00,35.1,31.3,29.88,West,270,1.7,-999.0,86,-99.99,,,0.00,Acu-Link.com,2014-12-25 13:37:00,
2014-12-25 05:53:00,34.9,30.9,29.89,WSW,247,2.7,-999.0,85,-99.99,,,0.00,Acu-Link.com,2014-12-25 13:53:00,
2014-12-25 06:08:00,35.2,31.2,29.90,WSW,247,2.2,-999.0,85,-99.99,,,0.00,Acu-Link.com,2014-12-25 14:08:00,
2014-12-25 06:23:00,35.1,31.3,29.90,West,270,2.2,-999.0,86,-99.99,,,0.00,Acu-Link.com,2014-12-25 14:23:00,
2014-12-25 06:38:00,35.4,30.5,29.89,WSW,247,2.2,-999.0,82,-99.99,,,0.00,Acu-Link.com,2014-12-25 14:38:00,
2014-12-25 06:54:00,36.1,29.9,29.90,West,270,2.7,-999.0,78,-99.99,,,0.00,Acu-Link.com,2014-12-25 14:54:00,
2014-12-25 07:09:00,36.9,29.4,29.90,WSW,247,2.2,-999.0,74,-99.99,,,0.00,Acu-Link.com,2014-12-25 15:09:00,
2014-12-25 07:24:00,36.9,29.7,29.91,WSW,247,1.7,-999.0,75,-99.99,,,0.00,Acu-Link.com,2014-12-25 15:24:00,
2014-12-25 07:39:00,36.5,29.3,29.91,SW,225,0.0,-999.0,75,-99.99,,,0.00,Acu-Link.com,2014-12-25 15:39:00,
2014-12-25 07:54:00,37.9,29.0,29.91,WSW,247,2.2,-999.0,70,-99.99,,,0.00,Acu-Link.com,2014-12-25 15:54:00,
2014-12-25 08:09:00,39.6,29.6,29.91,West,270,0.0,-999.0,67,-99.99,,,0.00,Acu-Link.com,2014-12-25 16:09:00,
2014-12-25 08:25:00,40.3,29.9,29.92,West,270,0.0,-999.0,66,-99.99,,,0.00,Acu-Link.com,2014-12-25 16:25:00,
2014-12-25 08:40:00,42.1,30.0,29.92,West,270,0.0,-999.0,62,-99.99,,,0.00,Acu-Link.com,2014-12-25 16:40:00,
2014-12-25 08:55:00,42.8,31.1,29.92,North,0,0.0,-999.0,63,-99.99,,,0.00,Acu-Link.com,2014-12-25 16:55:00,
2014-12-25 09:11:00,43.5,30.1,29.91,WNW,292,0.0,-999.0,59,-99.99,,,0.00,Acu-Link.com,2014-12-25 17:11:00,
2014-12-25 09:26:00,43.9,31.3,29.89,NE,45,1.7,-999.0,61,-99.99,,,0.00,Acu-Link.com,2014-12-25 17:26:00,
2014-12-25 09:41:00,44.6,30.3,29.88,ENE,67,2.7,-999.0,57,-99.99,,,0.00,Acu-Link.com,2014-12-25 17:41:00,
2014-12-25 09:57:00,45.1,30.4,29.87,ENE,67,4.2,-999.0,56,-99.99,,,0.00,Acu-Link.com,2014-12-25 17:57:00,
2014-12-25 10:12:00,45.7,30.9,29.86,ENE,67,2.7,-999.0,56,-99.99,,,0.00,Acu-Link.com,2014-12-25 18:12:00,
2014-12-25 10:27:00,45.9,32.0,29.85,ENE,67,4.2,-999.0,58,-99.99,,,0.00,Acu-Link.com,2014-12-25 18:27:00,
2014-12-25 10:42:00,47.3,32.4,29.85,ENE,67,3.7,-999.0,56,-99.99,,,0.00,Acu-Link.com,2014-12-25 18:42:00,
2014-12-25 10:57:00,47.7,30.9,29.84,NE,45,7.3,-999.0,52,-99.99,,,0.00,Acu-Link.com,2014-12-25 18:57:00,
2014-12-25 11:13:00,47.5,30.3,29.83,ENE,67,3.2,-999.0,51,-99.99,,,0.00,Acu-Link.com,2014-12-25 19:13:00,
2014-12-25 11:28:00,48.2,30.4,29.81,NE,45,4.7,-999.0,50,-99.99,,,0.00,Acu-Link.com,2014-12-25 19:28:00,
2014-12-25 11:43:00,48.7,31.4,29.79,NNW,337,3.2,-999.0,51,-99.99,,,0.00,Acu-Link.com,2014-12-25 19:43:00,
2014-12-25 11:59:00,48.4,30.6,29.77,NNE,22,6.8,-999.0,50,-99.99,,,0.00,Acu-Link.com,2014-12-25 19:59:00,
2014-12-25 12:14:00,48.7,30.9,29.75,NE,45,5.3,-999.0,50,-99.99,,,0.00,Acu-Link.com,2014-12-25 20:14:00,
2014-12-25 12:30:00,48.9,31.1,29.73,ENE,67,4.2,-999.0,50,-99.99,,,0.00,Acu-Link.com,2014-12-25 20:30:00,
2014-12-25 12:46:00,49.3,31.9,29.71,NNE,22,3.2,-999.0,51,-99.99,,,0.00,Acu-Link.com,2014-12-25 20:46:00,
2014-12-25 13:01:00,49.5,30.1,29.68,NNE,22,5.8,-999.0,47,-99.99,,,0.00,Acu-Link.com,2014-12-25 21:01:00,
2014-12-25 13:16:00,49.6,31.2,29.66,NE,45,4.7,-999.0,49,-99.99,,,0.00,Acu-Link.com,2014-12-25 21:16:00,
2014-12-25 13:31:00,49.3,31.5,29.63,NE,45,1.7,-999.0,50,-99.99,,,0.00,Acu-Link.com,2014-12-25 21:31:00,
2014-12-25 13:46:00,49.5,30.1,29.61,ENE,67,6.8,-999.0,47,-99.99,,,0.00,Acu-Link.com,2014-12-25 21:46:00,
2014-12-25 14:01:00,49.3,31.0,29.60,East,90,2.2,-999.0,49,-99.99,,,0.00,Acu-Link.com,2014-12-25 22:01:00,
2014-12-25 14:17:00,49.5,29.6,29.60,ENE,67,5.8,-999.0,46,-99.99,,,0.00,Acu-Link.com,2014-12-25 22:17:00,
2014-12-25 14:32:00,49.5,30.1,29.59,ESE,112,4.2,-999.0,47,-99.99,,,0.00,Acu-Link.com,2014-12-25 22:32:00,
2014-12-25 14:48:00,49.1,29.2,29.59,NNE,22,2.7,-999.0,46,-99.99,,,0.00,Acu-Link.com,2014-12-25 22:48:00,
2014-12-25 15:03:00,48.4,26.9,29.60,NNE,22,4.2,-999.0,43,-99.99,,,0.00,Acu-Link.com,2014-12-25 23:03:00,